Tracking 35275 objects as of 9-Sep-2026
HD Live streaming from Space Station
objects crossing your sky now

STARLINK-11205

Track STARLINK-11205 now!
10-day predictions
STARLINK-11205 is classified as:


NORAD ID: 60313
Int'l Code: 2024-133N
Launch date: July 28, 2024
Source: United States (US)
Launch site: AIR FORCE WESTERN TEST RANGE (AFWTR)
Your satellite tracking list
Your tracking list is empty




NASA's NSSDC Master Catalog

Two Line Element Set (TLE):
1 60313U 24133N   26252.20550675 -.00003290  00000-0 -22295-4 0  9993
2 60313  53.1583 321.8233 0001958  89.5836 270.5406 15.69707575122555
Source of the keplerian elements: AFSPC